Powrót do katalogu

ZY 3 04

AktywnyNaukaSSO
NORAD 67131·PAYLOAD·🇨🇳 China

Wystrzelony Dec 16, 2025 z Taiyuan Satellite Launch Center

Loading…

Następne Przeloty (najbliższe 24 godziny)

TLE

ŚwieżeSource: Space-Track

Epoka: Sep 14, 2026, 14:50 UTC

1 67131U 25300A   26257.61872207  .00003257  00000-0  14814-3 0  9991
2 67131  97.4671 334.8246 0006371  10.1019 350.0344 15.21430696 41431

Śledź ZY 3 04 w czasie rzeczywistym z AllMySat

Download on the App Store